Retour au catalogue

OPS 4682 DEB

ActifPO
NORAD 38413·DEBRIS·🇺🇸 United States

Lancé Apr 3, 1965 depuis Vandenberg Space Force Base

Loading…

Prochains Passages (prochaines 24 heures)

TLE

FraisSource: Space-Track

Époque: Sep 14, 2026, 18:09 UTC

1 38413U 65027DS  26257.75653306  .00000396  00000-0  12872-2 0  9996
2 38413  90.2477  12.2616 0029578  56.3722 304.0216 13.00051862136916

Suivez OPS 4682 DEB en temps réel avec AllMySat

Download on the App Store